When you browse on this site, cookies collect data to enhance your experience and personalize the content and advertising you see.
Visit our Privacy Policy to learn more. By continuing to use the site, you agree to this use of cookies and data.
  • In Sweden
  • List of Countries
  • For 7 days
  • Water Temperature
  • Weather Map
  • Weather Widgets
  • user-avatar
    Login

    Hourly Weather Boa Vista

    Today, 20 August, Tuesday

    Time Temperature Precipitation Wind Pressure Humidity
    00:00 +26°C° 0 mm 1 mps 754 mmHg 83%
    01:00 +26°C° 0 mm 1 mps 754 mmHg 84%
    02:00 +24°C° 0 mm 0 mps 753 mmHg 85%
    03:00 +24°C° 0 mm 0 mps 753 mmHg 86%
    04:00 +23°C° 0 mm 0 mps 754 mmHg 87%
    05:00 +23°C° 0 mm 0 mps 754 mmHg 88%
    06:00 +26°C° 0 mm 1 mps 754 mmHg 85%
    07:00 +27°C° 0 mm 1 mps 755 mmHg 81%
    08:00 +28°C° 0 mm 1 mps 755 mmHg 77%
    09:00 +30°C° 0.2 mm 2 mps 755 mmHg 74%
    10:00 +31°C° 0.2 mm 2 mps 755 mmHg 70%
    11:00 +33°C° 0.2 mm 3 mps 755 mmHg 66%
    12:00 +34°C° 0.4 mm 2 mps 754 mmHg 62%
    13:00 +34°C° 0.4 mm 2 mps 754 mmHg 58%
    14:00 +34°C° 0.4 mm 1 mps 753 mmHg 53%
    15:00 +34°C° 0.1 mm 1 mps 753 mmHg 57%
    16:00 +33°C° 0.1 mm 1 mps 753 mmHg 60%
    17:00 +33°C° 0.1 mm 1 mps 752 mmHg 64%
    18:00 +31°C° 0.1 mm 1 mps 753 mmHg 68%
    19:00 +30°C° 0.1 mm 2 mps 753 mmHg 72%
    20:00 +28°C° 0.1 mm 2 mps 754 mmHg 76%
    21:00 +28°C° 0.2 mm 1 mps 754 mmHg 78%
    22:00 +27°C° 0.2 mm 1 mps 755 mmHg 80%
    23:00 +27°C° 0.2 mm 1 mps 755 mmHg 82%

    Tomorrow, 21 August, Wednesday

    Time Temperature Precipitation Wind Pressure Humidity
    00:00 +27°C° 0 mm 1 mps 754 mmHg 83%
    01:00 +26°C° 0 mm 1 mps 754 mmHg 84%
    02:00 +26°C° 0 mm 1 mps 753 mmHg 85%
    03:00 +26°C° 0 mm 1 mps 754 mmHg 86%
    04:00 +26°C° 0 mm 1 mps 754 mmHg 86%
    05:00 +26°C° 0 mm 1 mps 754 mmHg 87%
    06:00 +27°C° 0 mm 2 mps 754 mmHg 84%
    07:00 +27°C° 0 mm 2 mps 755 mmHg 81%
    08:00 +28°C° 0 mm 2 mps 755 mmHg 78%
    09:00 +30°C° 0.7 mm 2 mps 755 mmHg 73%
    10:00 +31°C° 0.7 mm 3 mps 755 mmHg 69%
    11:00 +33°C° 0.7 mm 3 mps 755 mmHg 65%
    12:00 +34°C° 0.3 mm 3 mps 755 mmHg 61%
    13:00 +35°C° 0.3 mm 3 mps 754 mmHg 57%
    14:00 +35°C° 0.3 mm 2 mps 753 mmHg 53%
    15:00 +34°C° 0.1 mm 2 mps 753 mmHg 57%
    16:00 +34°C° 0.1 mm 2 mps 753 mmHg 61%
    17:00 +32°C° 0.1 mm 2 mps 752 mmHg 65%
    18:00 +31°C° 0.2 mm 2 mps 753 mmHg 71%
    19:00 +29°C° 0.2 mm 2 mps 753 mmHg 76%
    20:00 +28°C° 0.2 mm 1 mps 754 mmHg 81%
    21:00 +27°C° 0.1 mm 1 mps 754 mmHg 83%
    22:00 +27°C° 0.1 mm 1 mps 754 mmHg 85%
    23:00 +27°C° 0.1 mm 1 mps 754 mmHg 86%

    Day after tomorrow, 22 August, Thursday

    Time Temperature Precipitation Wind Pressure Humidity
    00:00 +26°C° 0 mm 1 mps 754 mmHg 87%
    01:00 +26°C° 0 mm 1 mps 754 mmHg 87%
    02:00 +26°C° 0 mm 1 mps 753 mmHg 88%
    03:00 +26°C° 0 mm 1 mps 753 mmHg 88%
    04:00 +26°C° 0 mm 1 mps 753 mmHg 89%
    05:00 +26°C° 0 mm 1 mps 754 mmHg 89%
    06:00 +27°C° 0 mm 1 mps 754 mmHg 86%
    07:00 +28°C° 0 mm 2 mps 755 mmHg 82%
    08:00 +29°C° 0 mm 2 mps 755 mmHg 78%
    09:00 +30°C° 0.6 mm 2 mps 755 mmHg 74%
    10:00 +31°C° 0.6 mm 3 mps 755 mmHg 70%
    11:00 +33°C° 0.6 mm 4 mps 755 mmHg 67%
    12:00 +34°C° 0.2 mm 3 mps 755 mmHg 63%
    13:00 +35°C° 0.2 mm 3 mps 754 mmHg 59%
    14:00 +35°C° 0.2 mm 3 mps 753 mmHg 56%
    15:00 +35°C° 0.1 mm 3 mps 753 mmHg 59%
    16:00 +34°C° 0.1 mm 2 mps 753 mmHg 62%
    17:00 +34°C° 0.1 mm 2 mps 752 mmHg 66%
    18:00 +31°C° 0 mm 2 mps 753 mmHg 70%
    19:00 +30°C° 0 mm 1 mps 753 mmHg 74%
    20:00 +28°C° 0 mm 1 mps 754 mmHg 78%
    21:00 +28°C° 0 mm 1 mps 754 mmHg 80%
    22:00 +28°C° 0 mm 1 mps 754 mmHg 82%
    23:00 +27°C° 0 mm 1 mps 754 mmHg 84%

    23 August, Friday

    Time Temperature Precipitation Wind Pressure Humidity
    00:00 +27°C° 0 mm 1 mps 754 mmHg 85%
    01:00 +27°C° 0 mm 1 mps 754 mmHg 86%
    02:00 +26°C° 0 mm 1 mps 753 mmHg 87%
    03:00 +26°C° 0 mm 1 mps 753 mmHg 88%
    04:00 +26°C° 0 mm 1 mps 753 mmHg 89%
    05:00 +26°C° 0 mm 1 mps 753 mmHg 89%
    06:00 +27°C° 0 mm 1 mps 754 mmHg 85%
    07:00 +28°C° 0 mm 2 mps 755 mmHg 81%
    08:00 +29°C° 0 mm 3 mps 755 mmHg 77%
    09:00 +30°C° 0.3 mm 3 mps 755 mmHg 72%
    10:00 +33°C° 0.3 mm 4 mps 755 mmHg 68%
    11:00 +34°C° 0.3 mm 4 mps 755 mmHg 63%
    12:00 +34°C° 0.3 mm 4 mps 755 mmHg 61%
    13:00 +35°C° 0.3 mm 4 mps 754 mmHg 59%
    14:00 +35°C° 0.3 mm 3 mps 753 mmHg 56%
    15:00 +35°C° 0.1 mm 3 mps 753 mmHg 58%
    16:00 +34°C° 0.1 mm 2 mps 752 mmHg 60%
    17:00 +33°C° 0.1 mm 1 mps 752 mmHg 62%
    18:00 +31°C° 0.1 mm 1 mps 752 mmHg 68%
    19:00 +30°C° 0.1 mm 1 mps 753 mmHg 73%
    20:00 +26°C° 0.1 mm 0 mps 753 mmHg 78%
    21:00 +26°C° 0.1 mm 0 mps 753 mmHg 80%
    22:00 +26°C° 0.1 mm 0 mps 754 mmHg 81%
    23:00 +25°C° 0.1 mm 0 mps 754 mmHg 82%

    24 August, Saturday

    Time Temperature Precipitation Wind Pressure Humidity
    00:00 +25°C° 0.2 mm 0 mps 753 mmHg 84%
    01:00 +25°C° 0.2 mm 0 mps 753 mmHg 85%
    02:00 +24°C° 0.2 mm 0 mps 753 mmHg 87%
    03:00 +24°C° 0.1 mm 0 mps 753 mmHg 88%
    04:00 +24°C° 0.1 mm 0 mps 753 mmHg 89%
    05:00 +26°C° 0.1 mm 1 mps 753 mmHg 90%
    06:00 +27°C° 0 mm 1 mps 754 mmHg 87%
    07:00 +28°C° 0 mm 2 mps 754 mmHg 84%
    08:00 +29°C° 0 mm 2 mps 755 mmHg 80%
    09:00 +30°C° 0 mm 3 mps 755 mmHg 73%
    10:00 +33°C° 0 mm 3 mps 755 mmHg 66%
    11:00 +35°C° 0 mm 4 mps 755 mmHg 59%
    12:00 +35°C° 0.5 mm 3 mps 754 mmHg 59%
    13:00 +35°C° 0.5 mm 3 mps 753 mmHg 59%
    14:00 +35°C° 0.5 mm 3 mps 752 mmHg 59%
    15:00 +35°C° 0.2 mm 3 mps 752 mmHg 60%
    16:00 +35°C° 0.2 mm 2 mps 752 mmHg 61%
    17:00 +34°C° 0.2 mm 2 mps 751 mmHg 62%
    18:00 +32°C° 0 mm 2 mps 752 mmHg 66%
    19:00 +30°C° 0 mm 2 mps 752 mmHg 69%
    20:00 +29°C° 0 mm 2 mps 752 mmHg 73%
    21:00 +28°C° 0.2 mm 1 mps 753 mmHg 76%
    22:00 +28°C° 0.2 mm 1 mps 753 mmHg 79%
    23:00 +27°C° 0.2 mm 1 mps 753 mmHg 82%

    25 August, Sunday

    Time Temperature Precipitation Wind Pressure Humidity
    00:00 +27°C° 0.4 mm 1 mps 753 mmHg 84%
    01:00 +26°C° 0.4 mm 1 mps 752 mmHg 87%
    02:00 +26°C° 0.4 mm 1 mps 752 mmHg 89%
    03:00 +26°C° 0.2 mm 2 mps 752 mmHg 89%
    04:00 +26°C° 0.2 mm 2 mps 752 mmHg 89%
    05:00 +26°C° 0.2 mm 2 mps 752 mmHg 89%
    06:00 +26°C° 0.1 mm 2 mps 753 mmHg 87%
    07:00 +27°C° 0.1 mm 2 mps 754 mmHg 85%
    08:00 +28°C° 0.1 mm 2 mps 754 mmHg 83%
    09:00 +29°C° 0.5 mm 3 mps 754 mmHg 76%
    10:00 +31°C° 0.5 mm 3 mps 754 mmHg 70%
    11:00 +34°C° 0.5 mm 3 mps 754 mmHg 63%
    12:00 +34°C° 0.8 mm 3 mps 753 mmHg 61%
    13:00 +34°C° 0.8 mm 3 mps 752 mmHg 60%
    14:00 +34°C° 0.8 mm 3 mps 752 mmHg 58%
    15:00 +34°C° 0.3 mm 3 mps 751 mmHg 61%
    16:00 +34°C° 0.3 mm 2 mps 751 mmHg 64%
    17:00 +32°C° 0.3 mm 2 mps 751 mmHg 67%
    18:00 +31°C° 0.1 mm 2 mps 752 mmHg 70%
    19:00 +30°C° 0.1 mm 1 mps 752 mmHg 73%
    20:00 +29°C° 0.1 mm 1 mps 752 mmHg 77%
    21:00 +28°C° 0.7 mm 1 mps 753 mmHg 80%
    22:00 +27°C° 0.7 mm 1 mps 753 mmHg 83%
    23:00 +27°C° 0.7 mm 1 mps 753 mmHg 86%
    Show more